Location: Kawakawa
(35.3830°S, 174.0670°E)
Time: 00:15:21
(UTC+13:00)

Cosmos 2278 Rocket - Pass Details

Date: 24 January 2019
Orbit: 839 x 847 km, 71.0° (Epoch: 17 October)

Event Time Altitude Azimuth Distance (km) Brightness Sun altitude
Rises 23:34:11 0° 187° (S) 3,426 6.3 -28.3°
Reaches altitude 10° 23:37:19 10° 171° (S) 2,484 5.2 -28.6°
Maximum altitude 23:41:30 21° 123° (ESE) 1,839 3.9 -29.0°
Enters shadow 23:41:33 21° 122° (ESE) 1,839 3.9 -29.1°
